FREGAT R/B, 63131

Orbit data source: Space-Track

FREGAT R/B, 63131 is space debris in MEO originally from a launch on Sun, 02 Mar 2025 UTC launched from the Plesetsk Missile And Space Complex (PKMTR). Debris objects in space refer to the collection of defunct objects orbiting the Earth. Examples of debris include non-operational satellites, rocket bodies, and fragments generated from explosions, collisions, or faulty payload assembly.

Loading next visibility...
Identifier
63131, 2025-042B
Orbit
MEO
Last TLE update
1 day ago
Origin
Manufacturer
Lavochkin
Mission
Spacecraft
Bus & Motor
FREGAT, Unknown motor
Mass
1,000 kg wet, 1,000 kg dry
Launch date (UTC)
2025-03-02 (2 months ago)
Launch vehicle
Unknown
Launch site
Plesetsk Missile And Space Complex (PKMTR)
Object type
Payload
Rocket body
Debris
Shape & HBR
Cyl, 3.35 m
Radar Cross Section
8.354 m², Large (>1 m²)

Expand to show TLE details & history

TLE from 1 day ago
0 FREGAT R/B
1 63131U 25042B   25127.98373052  .00000007  00000-0  00000-0 0  9998
2 63131  64.8590  86.5902 0016869 198.0036 161.9119  2.13753718  1405
Epoch: 2025-05-07T23:36Z
Definitive object data (Epoch: 2025-05-07T23:36:34.316Z)
Latitude
-0.00007°
Longitude
-133.62782°
Altitude
19,119.435 km
Speed
3.951 km/s
True Right ascension
05h 46m 18s
True Declination
0° 00' 00"
Sunlit
Object was in daylight at TLE epoch
Visualization TLE readout
Latitude
-61.84926°
Longitude
165.19326°
Altitude
19,097.516 km
Speed
3.956 km/s
Apparent Right ascension
02h 04m 50s
Apparent Declination
-57° 46' 32"
Sunlit
Object is in daylight
Visualization observer readout
Local Sidereal Time
15:02:27
Azimuth
157.324° SSE
Elevation
-69.877°
Doppler factor
1
Orbital elements
Apogee altitude
19,120.573 km
Perigee altitude
19,034.691 km
Semi-major axis
25,455.769 km
Eccentricity
0.0016869
Inclination
64.859°
RAAN
86.5902°
Arg. of periapsis
198.0036°
True anomaly
161.9718°
Mean anomaly
161.9119°
Eccentric anomaly
161.94186°
Mean motion
0.5344 °/min
BSTAR
Unknown
Orbital period
673.66 mins
Loading maneuver chart data...
Loading SW <> Apogee altitude chart data...
Loading historical data...
Loading historical data...
Loading historical data...
Loading historical data...
Loading historical data...
Loading historical data...
Loading historical data...
Other satellites on launch #42 in the year 2025 (2025-03-02 UTC)

FREGAT R/B Visibility forecast

Observer location: undefined°, undefined°

Span
Click to sort rows by Start time (UTC) header in descending order
Start Az.
Max El. time (UTC)
Max El. Az.
Max El.
End time (UTC)
End Az.
104 mins2025-05-09 12:14:32.833Z335.647° NNW2025-05-09 13:05:32.833Z311.864° NW16.774°2025-05-09 13:58:32.833Z285.471° WNW
270 mins2025-05-09 19:42:32.833Z163.347° S2025-05-09 21:52:32.833Z90.854° ESE43.573°2025-05-10 00:12:32.833Z40.363° NE
|